Temp
19 19 18 19 19 20 19 19 19 18 18 17 17 17 18 17 18 17 17 17 18 18
18 18 18 17 17 17 17 17 17 18 18 18 18 17 17 17 17 17 17 17 17 17
18 18 17 17 17 17 18 18 18 18 18 18 18 18 17 17 16 16 16 16 16 16
17 17 17 17 17 17 17 17 17 17 17 16 16 15 15 15 15 15 15 15 15 15
18 17 17 17 17 17 17 17 16 15 14 14 14 14 14 14 15 15 15 15 15 15
17 17 17 16 16 16 16 16 14 14 13 13 13 13 13 14 14 15 15 15 15 15
17 17 17 16 16 16 15 14 13 12 12 12 12 13 14 14 15 15 15 15 14 14
18 17 17 16 16 15 14 13 13 12 11 11 12 12 14 14 14 15 15 15 14 14
17 17 16 16 15 14 13 13 13 12 12 10 11 11 12 13 13 13 14 14 14 14
16 16 16 15 15 14 12 10 10 11 11 11 11 12 12 12 12 13 13 13 13 13
15 15 14 14 13 12 11 11 10 11 12 11 11 12 12 12 12 12 12 12 12 13
15 15 14 13 13 12 12 12 11 11 11 11 11 11 12 11 12 12 12 12 12 12
15 15 14 13 13 13 12 12 12 12 11 11 11 11 11 11 11 11 12 12 11 12
15 14 14 13 12 12 12 11 11 12 12 11 11 11 10 11 11 11 12 11 11 11
Height
1547 1548 1548 1547 1547 1547 1546 1545 1545 1545 1544 1543 1542 1539 1538 1538 1537 1537 1537 1535 1532 1532
1546 1546 1545 1545 1545 1544 1543 1542 1541 1540 1538 1537 1535 1534 1533 1533 1533 1533 1532 1530 1530 1530
1544 1544 1544 1543 1543 1542 1541 1539 1537 1535 1533 1532 1531 1530 1529 1529 1528 1528 1527 1526 1526 1526
1542 1541 1541 1540 1540 1539 1538 1536 1533 1531 1530 1529 1528 1527 1527 1525 1523 1523 1523 1523 1522 1522
1540 1539 1538 1537 1537 1536 1534 1533 1531 1530 1529 1528 1527 1525 1522 1521 1521 1520 1519 1519 1518 1517
1538 1537 1535 1535 1534 1532 1531 1530 1529 1528 1527 1526 1525 1522 1520 1519 1518 1517 1515 1514 1513 1512
1535 1534 1533 1532 1531 1530 1528 1528 1527 1527 1526 1525 1523 1521 1519 1518 1517 1515 1513 1510 1509 1508
1534 1532 1530 1529 1528 1527 1526 1526 1526 1526 1525 1524 1522 1519 1518 1517 1515 1512 1510 1508 1507 1505
1532 1530 1529 1527 1526 1525 1525 1524 1524 1524 1523 1522 1521 1518 1517 1516 1514 1512 1509 1507 1505 1504
1531 1529 1528 1526 1524 1523 1522 1522 1522 1522 1522 1521 1520 1518 1517 1515 1513 1511 1509 1506 1504 1503
1529 1528 1526 1525 1523 1522 1520 1520 1520 1520 1520 1519 1518 1517 1515 1513 1512 1510 1508 1505 1502 1501
1527 1526 1525 1523 1521 1520 1518 1517 1517 1518 1517 1517 1516 1514 1513 1511 1510 1508 1505 1503 1501 1499
1524 1523 1522 1521 1520 1519 1517 1516 1517 1516 1516 1514 1514 1513 1511 1509 1507 1505 1503 1501 1499 1497
1521 1521 1521 1520 1518 1517 1516 1516 1515 1514 1513 1513 1512 1511 1510 1507 1504 1501 1499 1498 1496 1494
Wind_Speed
11 10 9 9 11 10 12 11 12 13 14 15 15 14 14 13 12 12 13 13 14 15
11 11 9 9 10 11 12 13 14 16 16 16 17 18 19 17 15 15 14 13 12 13
9 9 9 9 9 10 12 12 12 12 12 12 12 14 16 18 18 18 16 16 17 15
8 9 8 6 6 6 6 6 6 5 5 5 5 7 9 10 12 14 14 16 17 17
5 6 6 6 6 6 5 4 3 3 2 3 6 7 7 7 8 9 10 11 14 15
4 6 7 7 7 6 5 3 3 2 4 6 7 7 8 9 11 12 13 14 15 15
4 6 6 5 6 6 5 4 4 0 2 4 8 9 9 10 10 9 10 9 9 9
6 5 5 6 6 4 5 6 5 5 6 8 11 10 6 6 7 7 6 6 8 8
6 6 7 7 5 3 3 3 2 4 4 6 7 11 11 10 8 7 9 8 7 7
6 7 7 6 4 2 2 2 2 3 3 3 7 7 9 10 11 11 10 9 10 10
7 7 5 4 2 2 3 2 3 3 1 5 6 7 9 12 11 11 10 9 11 11
8 8 6 4 2 2 5 3 4 1 3 4 6 7 11 13 15 14 10 9 11 13
9 8 6 4 3 2 4 5 5 2 1 4 5 8 11 14 18 18 11 7 10 13
7 6 6 5 3 1 5 6 0 3 5 6 6 7 11 16 19 19 15 12 11 9
Wind_Direction
239 247 236 244 251 233 231 245 247 262 269 263 263 267 273 275 271 270 265 269 280 285
234 240 244 253 267 276 275 274 277 279 280 277 272 268 269 272 270 267 269 269 270 276
236 242 240 241 257 269 273 276 277 279 281 279 274 273 272 267 265 266 268 272 272 273
237 246 247 256 276 280 285 284 286 290 299 309 303 286 278 283 280 279 277 272 273 274
229 246 263 288 300 302 296 290 295 324 346 319 319 321 322 321 312 303 295 287 281 280
274 265 278 295 305 308 300 290 296 313 348 335 332 317 315 315 315 313 310 308 304 298
281 280 287 295 304 303 282 263 274 342 287 289 311 303 313 315 320 324 323 323 330 334
312 311 311 323 324 298 261 249 257 245 259 290 302 320 6 353 341 338 338 331 333 344
317 317 319 329 333 302 253 285 113 35 6 355 5 18 25 12 6 347 334 334 337 343
310 311 314 324 322 298 338 27 21 9 348 357 345 18 18 11 7 348 332 316 320 319
304 304 303 307 337 1 335 271 183 179 213 313 335 352 354 354 354 347 334 316 302 308
305 296 292 291 301 309 3 1 199 220 283 305 327 333 347 348 348 345 329 309 295 297
299 290 276 264 289 351 7 96 114 140 256 279 308 314 328 332 337 340 339 321 303 303
293 283 276 280 282 342 112 130 108 306 259 276 288 306 313 323 332 336 342 338 326 342